Hourly Data Report for May 09, 2020

All times are specified in Local Standard Time (LST). Add 1 hour to adjust for Daylight Saving Time where and when it is observed.

OTTAWA INTL A
ONTARIO
Current Station Operator: NAVCAN

45°19'00.000" N
75°40'00.000" W
114.90 m
6106001
71628
YOW

Download Data

Hourly Data (May 2020)
Hourly Data Report for May 9, 2020
TIME Temp Definition
°C
Dew Point Definition
°C
Rel Hum Definition
%
Wind Dir Definition
10's deg

Wind Spd Definition
km/h
Visibility Definition
km
Stn Press Definition
kPa
Hmdx Definition


Wind Chill Definition


Weather Definition


00:00 -0.2 -10.4 46 32 23 24.1 99.37   -6 LegendNANA
01:00 -0.4 -10.7 46 32 24 24.1 99.38   -6 Mostly Cloudy
02:00 -1.2 -10.7 49 31 25 24.1 99.39   -7 LegendNANA
03:00 -2.5 -11.1 52 30 18 24.1 99.38   -8 LegendNANA
04:00 -2.8 -10.5 56 30 28 24.1 99.39   -10 Mainly Clear
05:00 -3.0 -9.7 60 30 27 24.1 99.43   -10 LegendNANA
06:00 -2.2 -9.4 58 31 31 24.1 99.46   -9 LegendNANA
07:00 -0.4 -9.3 51 31 28 24.1 99.46   -7 Mostly Cloudy
08:00 -0.4 -9.9 49 30 26 24.1 99.44   -7 LegendNANA
09:00 0.5 -7.7 54 31 21 24.1 99.40     LegendNANA
10:00 2.1 -7.5 49 31 22 24.1 99.38     Mostly Cloudy
11:00 2.0 -9.1 44 29 43 24.1 99.39     LegendNANA
12:00 3.8 -8.0 42 29 34 24.1 99.37     LegendNANA
13:00 3.3 -8.4 42 30 32 24.1 99.35     Mostly Cloudy
14:00 4.7 -7.7 40 26 33 24.1 99.34     LegendNANA
15:00 3.4 -6.2 49 31 50 12.9 99.38     Snow Showers
16:00 4.8 -10.3 33 30 36 24.1 99.38     Mostly Cloudy
17:00 4.5 -9.9 34 30 38 24.1 99.47     LegendNANA
18:00 3.9 -8.7 40 29 30 24.1 99.54     LegendNANA
19:00 3.6 -8.9 40 29 32 24.1 99.60     Mostly Cloudy
20:00 3.5 -8.7 41 29 28 24.1 99.68     LegendNANA
21:00 3.2 -8.3 43 28 29 24.1 99.74     LegendNANA
22:00 2.8 -8.7 42 28 23 24.1 99.76     Cloudy
23:00 1.8 -8.2 48 26 19 24.1 99.79     LegendNANA

Notes on Data Quality.

Legend

  • E = Estimated
  • M = Missing
  • NA = Not Available*
  • [empty] = Indicates an unobserved value
Date modified: